User: anonymous   Login
Location: Unspecified
(0.0000°N, 0.0000°E)
Time: 15:02:29
(UTC+00:00)
Language:

DMSP 5D-2 F-14 - Orbit

View from above orbital plane
View from above orbital plane
View from above satellite
View from above satellite

Ground track
Ground track

The orbit data is extracted from the following two-line orbital elements,

1 24753U 97012A   18067.18157591 0.00000020  00000-0  10195-4 0    04
2 24753  99.0140  63.0433 0009000  58.1570 301.8429 14.15761068    06
Epoch (UTC): 08 March 2018 04:21:28
Eccentricity: 0.0009000
inclination: 99.0140°
perigee height: 833 km
apogee height: 846 km
right ascension of ascending node: 63.0433°
argument of perigee: 58.1570°
revolutions per day: 14.15761068
mean anomaly at epoch: 301.8429°
orbit number at epoch: 0

The dashed part of the orbit path shows where the satellite is in the earth's shadow,  

DLR